[Date Prev][Date Next][Thread Prev][Thread Next] - [Date Index][Thread Index][Author Index]
2 Line ISS Keps 5-27
- Subject: [sarex] 2 Line ISS Keps 5-27
- From: "Dave Larsen PhD" <doc@xxxxxxxxxxx>
- Date: Mon, 27 May 2002 03:46:48 -0700
ISS
1 25544U 98067A 02147.19495006 .00008810 00000-0 11332-3 0 4971
2 25544 51.6336 158.4840 0006326 116.2224 334.4700 15.59923688200752
----
Via the sarex mailing list at AMSAT.ORG courtesy of AMSAT-NA.
To unsubscribe, send "unsubscribe sarex" to Majordomo@amsat.org
AMSAT Home